Weather reports worldwide

Advertisment
La Coruna, Spain (8001): temperature & dewpoint: 07.07.2020 07:00:00 - 13.07.2020 07:00:00 (CEST)La Coruna, Spain (8001): wind speed: 07.07.2020 07:00:00 - 13.07.2020 07:00:00 (CEST)La Coruna, Spain (8001): wind direction: 07.07.2020 07:00:00 - 13.07.2020 07:00:00 (CEST)La Coruna, Spain (8001): reduced air pressure: 07.07.2020 07:00:00 - 13.07.2020 07:00:00 (CEST)La Coruna, Spain (8001): visibility: 07.07.2020 07:00:00 - 13.07.2020 07:00:00 (CEST)La Coruna, Spain (8001): precipitation: 07.07.2020 07:00:00 - 13.07.2020 07:00:00 (CEST)
Date & Time tt [°C] td [°C] ff [km/h] ff [kn] dd ppp [hPa] vv [km] rr [mm]
13.07.2020 07:00:00 - - - - - - - -
13.07.2020 06:00:00 17,6 14,3 15 8 NE 1022,8 20 0,0
13.07.2020 05:00:00 17,3 14,2 13 7 NE 1022,6 15 -
13.07.2020 04:00:00 18,0 14,3 16 9 NE 1022,7 20 0,0
13.07.2020 03:00:00 18,1 14,2 16 9 NE 1022,8 20 0,0
13.07.2020 02:00:00 17,9 14,2 11 6 NE 1023,0 15 -
13.07.2020 01:00:00 18,5 14,0 15 8 NE 1023,1 20 0,0
13.07.2020 00:00:00 19,4 14,4 18 10 NE 1022,9 20 0,0
12.07.2020 23:00:00 20,1 14,5 24 13 NE 1022,0 25 -
12.07.2020 22:00:00 21,3 14,2 26 14 ENE 1021,2 20 0,0
12.07.2020 21:00:00 22,6 14,4 22 12 NE 1020,3 20 0,0
12.07.2020 20:00:00 23,4 14,7 24 13 NE 1019,8 20 -
12.07.2020 19:00:00 21,8 15,9 16 9 NNE 1019,3 20 0,0
12.07.2020 18:00:00 19,9 15,5 18 10 N 1019,4 20 0,0
12.07.2020 17:00:00 20,1 15,7 13 7 N 1019,1 20 -
12.07.2020 16:00:00 20,2 15,8 18 10 N 1018,9 19 0,0
12.07.2020 15:00:00 22,0 16,0 16 9 N 1018,6 20 0,0
12.07.2020 14:00:00 23,8 16,3 8 4 NNW 1018,4 22 -
12.07.2020 13:00:00 25,9 16,4 9 5 NNE 1018,2 20 0,0
12.07.2020 12:00:00 24,7 16,7 9 5 NE 1018,1 20 0,0
12.07.2020 11:00:00 23,4 16,7 9 5 NE 1018,2 20 -
12.07.2020 10:00:00 22,1 16,4 8 4 NE 1017,9 20 0,0
12.07.2020 09:00:00 20,4 16,2 8 4 E 1017,5 20 0,0
12.07.2020 08:00:00 18,7 15,8 9 5 E 1017,6 18 -
12.07.2020 07:00:00 18,2 15,6 9 5 ENE 1017,1 20 0,0
12.07.2020 06:00:00 18,3 15,7 13 7 ENE 1017,0 20 0,0
12.07.2020 05:00:00 18,4 15,5 18 10 ENE 1016,7 18 -
12.07.2020 04:00:00 18,6 15,3 21 11 NE 1016,8 20 0,0
12.07.2020 03:00:00 18,7 15,2 16 9 ENE 1017,3 20 0,0
12.07.2020 02:00:00 18,8 15,3 9 5 E 1017,7 18 -
12.07.2020 01:00:00 19,1 15,2 15 8 ENE 1016,9 20 0,0
12.07.2020 00:00:00 19,3 15,2 13 7 ENE 1017,2 20 0,0
11.07.2020 23:00:00 19,9 15,5 13 7 ENE 1017,1 20 -
11.07.2020 22:00:00 19,9 15,5 21 11 ENE 1016,2 20 0,0
11.07.2020 21:00:00 20,7 15,7 26 14 ENE 1016,2 20 0,0
11.07.2020 20:00:00 21,6 15,4 29 16 ENE 1016,5 20 -
11.07.2020 19:00:00 22,9 15,2 28 15 ENE 1016,5 20 0,0
11.07.2020 18:00:00 24,2 15,1 22 12 NE 1016,7 20 0,0
11.07.2020 17:00:00 24,8 14,9 24 13 NE 1016,7 20 -
11.07.2020 16:00:00 24,9 15,0 22 12 NE 1016,9 20 0,0
11.07.2020 15:00:00 24,2 14,6 24 13 NE 1017,5 20 0,0
11.07.2020 14:00:00 23,3 14,6 24 13 ENE 1018,3 25 -
11.07.2020 13:00:00 22,4 14,3 28 15 ENE 1018,5 20 0,0
11.07.2020 12:00:00 21,6 14,5 22 12 NE 1018,7 20 0,0
11.07.2020 11:00:00 21,1 14,3 22 12 NE 1019,0 25 -
11.07.2020 10:00:00 20,2 14,1 24 13 NE 1019,2 20 0,0
11.07.2020 09:00:00 18,9 13,7 21 11 NE 1019,4 20 0,0
11.07.2020 08:00:00 18,1 13,6 21 11 ENE 1019,5 22 -
11.07.2020 07:00:00 17,6 13,5 22 12 NE 1019,6 20 0,0
11.07.2020 06:00:00 17,4 13,5 22 12 NE 1019,8 20 0,0
11.07.2020 05:00:00 16,9 13,6 21 11 NE 1019,9 15 -
11.07.2020 04:00:00 16,8 13,9 15 8 NE 1020,3 20 0,0
11.07.2020 03:00:00 17,1 13,8 18 10 NE 1020,7 20 0,0
11.07.2020 02:00:00 16,3 14,1 13 7 NNE 1021,2 15 -
11.07.2020 01:00:00 16,3 14,1 15 8 NNE 1021,7 19 0,0
11.07.2020 00:00:00 16,4 14,2 16 9 NNE 1021,7 19 0,0
10.07.2020 23:00:00 17,1 14,2 13 7 NNE 1021,6 15 -
10.07.2020 22:00:00 18,3 13,6 18 10 NE 1021,2 20 0,0
10.07.2020 21:00:00 19,0 13,4 26 14 ENE 1021,0 20 0,0
10.07.2020 20:00:00 18,4 13,7 21 11 NE 1020,9 20 -
10.07.2020 19:00:00 18,5 14,2 24 13 NNE 1021,0 20 0,0
10.07.2020 18:00:00 19,0 14,5 22 12 NNE 1021,0 20 0,0
10.07.2020 17:00:00 19,4 14,2 21 11 NNE 1021,2 20 -
10.07.2020 16:00:00 18,9 14,6 18 10 NNE 1021,3 20 0,0
10.07.2020 15:00:00 18,9 14,0 18 10 NNE 1021,7 20 0,0
10.07.2020 14:00:00 18,5 14,6 16 9 N 1022,0 20 -
10.07.2020 13:00:00 19,0 14,7 18 10 NNE 1022,1 20 0,0
10.07.2020 12:00:00 17,5 14,2 22 12 NNE 1022,3 20 0,0
10.07.2020 11:00:00 16,3 15,3 15 8 NNE 1022,2 15 -
10.07.2020 10:00:00 15,9 15,4 18 10 N 1022,1 19 0,0
10.07.2020 09:00:00 16,1 15,3 11 6 N 1021,8 20 0,0
10.07.2020 08:00:00 15,6 15,3 11 6 NE 1021,5 20 -
10.07.2020 07:00:00 15,6 15,3 16 9 N 1021,4 18 0,0
10.07.2020 06:00:00 16,0 15,4 21 11 N 1021,3 12 0,0
10.07.2020 05:00:00 16,0 15,0 11 6 N 1021,1 15 -
10.07.2020 04:00:00 16,1 15,3 13 7 N 1021,1 20 0,0
10.07.2020 03:00:00 16,1 15,8 9 5 N 1021,5 20 0,0
10.07.2020 02:00:00 16,2 16,0 9 5 N 1022,3 13 -
10.07.2020 01:00:00 16,3 16,3 11 6 N 1022,4 10 0,0
10.07.2020 00:00:00 16,5 16,5 13 7 N 1022,0 9 0,2
09.07.2020 23:00:00 16,6 16,4 15 8 N 1021,7 0,4 -
09.07.2020 22:00:00 17,1 16,8 9 5 NNW 1021,4 4,8 0,0
09.07.2020 21:00:00 17,5 16,2 11 6 NNW 1021,0 12 0,0
09.07.2020 20:00:00 17,9 16,1 11 6 NNW 1020,7 20 -
09.07.2020 19:00:00 18,7 15,4 11 6 NW 1020,7 20 0,0
09.07.2020 18:00:00 19,5 15,4 13 7 NNW 1021,1 20 0,0
09.07.2020 17:00:00 19,7 16,0 11 6 NW 1021,5 20 -
09.07.2020 16:00:00 20,1 16,3 16 9 NW 1021,6 20 0,0
09.07.2020 15:00:00 20,5 16,7 16 9 NW 1021,5 20 0,0
09.07.2020 14:00:00 20,4 16,6 18 10 NNW 1021,2 20 -
09.07.2020 13:00:00 19,6 16,8 13 7 NW 1021,3 20 0,0
09.07.2020 12:00:00 19,1 16,9 15 8 NNW 1021,0 20 0,0
09.07.2020 11:00:00 18,3 16,6 13 7 N 1021,0 3,0 -
09.07.2020 10:00:00 17,1 16,3 11 6 N 1020,9 6 0,0
09.07.2020 09:00:00 16,8 16,2 5 3 NNW 1020,6 12 0,0
09.07.2020 08:00:00 16,2 16,2 8 4 NNE 1020,3 2,0 -
09.07.2020 07:00:00 15,6 15,6 9 5 N 1020,1 7 0,0
09.07.2020 06:00:00 15,8 15,6 16 9 N 1019,6 2,0 0,0
09.07.2020 05:00:00 15,9 15,6 8 4 NNW 1019,0 5 -
09.07.2020 04:00:00 15,7 15,2 9 5 N 1018,9 11 0,0
09.07.2020 03:00:00 15,8 14,7 13 7 N 1019,1 13 0,0
09.07.2020 02:00:00 16,2 14,9 8 4 N 1019,3 20 -
09.07.2020 01:00:00 16,4 15,1 11 6 N 1019,3 14 0,0
09.07.2020 00:00:00 16,5 15,4 15 8 N 1018,8 14 0,0
08.07.2020 23:00:00 16,9 15,2 22 12 N 1018,4 20 -
08.07.2020 22:00:00 17,5 15,5 22 12 NNE 1017,4 16 0,0
08.07.2020 21:00:00 17,4 15,9 24 13 NNE 1017,2 13 0,0
08.07.2020 20:00:00 17,5 16,0 37 20 N 1016,3 16 -
08.07.2020 19:00:00 18,0 16,2 24 13 N 1016,3 17 0,0
08.07.2020 18:00:00 18,4 16,0 29 16 N 1016,2 19 0,0
08.07.2020 17:00:00 18,9 15,8 26 14 N 1016,3 20 -
08.07.2020 16:00:00 19,7 15,8 18 10 N 1016,3 20 0,0
08.07.2020 15:00:00 19,4 15,7 22 12 N 1016,3 19 0,0
08.07.2020 14:00:00 20,3 15,7 22 12 NNE 1016,0 20 -
08.07.2020 13:00:00 20,4 15,4 28 15 N 1016,0 19 0,0
08.07.2020 12:00:00 22,9 15,2 21 11 NE 1016,0 20 0,0
08.07.2020 11:00:00 22,0 15,1 18 10 NE 1016,0 20 -
08.07.2020 10:00:00 20,8 15,1 18 10 ENE 1015,7 20 0,0
08.07.2020 09:00:00 19,5 14,9 18 10 NE 1015,6 20 0,0
08.07.2020 08:00:00 18,6 15,3 18 10 NE 1015,3 15 -
08.07.2020 07:00:00 18,0 15,1 16 9 NE 1015,1 20 0,0
08.07.2020 06:00:00 17,9 15,3 13 7 NE 1014,9 20 0,0
08.07.2020 05:00:00 18,1 15,7 11 6 ENE 1015,0 15 -
08.07.2020 04:00:00 18,2 15,6 8 4 ENE 1015,3 20 0,0
08.07.2020 03:00:00 18,3 15,4 8 4 E 1015,6 20 0,0
08.07.2020 02:00:00 18,4 15,3 9 5 E 1016,0 18 -
08.07.2020 01:00:00 18,6 15,1 11 6 ENE 1016,0 20 0,0
08.07.2020 00:00:00 18,8 14,9 13 7 ENE 1016,1 20 0,0
07.07.2020 23:00:00 19,0 14,7 18 10 ENE 1015,8 20 -
07.07.2020 22:00:00 19,7 14,7 21 11 ENE 1015,1 20 0,0
07.07.2020 21:00:00 21,3 14,9 16 9 ENE 1014,9 20 0,0
07.07.2020 20:00:00 22,7 15,5 13 7 NE 1014,8 20 -
07.07.2020 19:00:00 23,3 15,6 11 6 N 1014,8 20 0,0
07.07.2020 18:00:00 23,3 15,6 11 6 N 1015,3 20 0,0
07.07.2020 17:00:00 22,6 15,7 11 6 NNW 1015,7 20 -
07.07.2020 16:00:00 23,1 15,4 11 6 NNW 1016,2 20 0,0
07.07.2020 15:00:00 23,7 15,2 11 6 N 1016,4 20 0,0
07.07.2020 14:00:00 25,2 14,3 15 8 NE 1016,6 25 -
07.07.2020 13:00:00 23,9 14,3 15 8 NE 1016,8 20 0,0
07.07.2020 12:00:00 23,1 14,6 13 7 NE 1017,0 20 0,0
07.07.2020 11:00:00 21,4 14,1 13 7 NE 1017,2 25 -
07.07.2020 10:00:00 20,0 13,7 13 7 ENE 1017,5 20 0,0
07.07.2020 09:00:00 18,4 13,7 15 8 ENE 1017,7 20 0,0
07.07.2020 08:00:00 17,3 13,4 18 10 NE 1017,6 22 -
07.07.2020 07:00:00 16,6 13,3 21 11 ENE 1017,8 20 0,0

tt = temperature
td = dewpoint
ff = wind speed
dd = wind direction
ppp = reduced air pressure
vv = visibility
rr = precipitation

Next stations